Regional Weather Roundup
Issued by NWS

Home | Current Version | Previous Version | Graphics & Text | Print | Product List | Glossary On
Versions: 1 2 3 4 5 6 7 8 9 10 11 12 13 14 15 16 17 18 19 20 21 22 23 24 25 26 27 28 29 30 31 32 33 34 35 36 37 38 39 40 41 42 43 44 45 46 47 48 49 50
000
ASUS43 KMPX 252010
RWRMN
WEATHER ROUNDUP FOR MINNESOTA
NATIONAL WEATHER SERVICE TWIN CITIES/CHANHASSEN MN
300 PM CDT WED APR 25 2018


NOTE: "FAIR" INDICATES FEW OR NO CLOUDS BELOW 12,000 FEET WITH NO
SIGNIFICANT WEATHER AND/OR OBSTRUCTIONS TO VISIBILITY. N/A MEANS
CURRENT SKY AND/OR WEATHER CONDITIONS ARE NOT AVAILABLE.

MNZ060>063-068>070-252100-
   Twin Cities Metro

CITY           SKY/WX    TMP DP  RH WIND       PRES   REMARKS
TWIN CITIES    FAIR      58  24  27 NW6       30.12F
ST PAUL        FAIR      57  21  24 VRB5      30.12F
CRYSTAL        FAIR      56  24  29 VRB5      30.11F
BLAINE         SUNNY     57  25  28 VRB3      30.11F
LAKEVILLE      FAIR      55  25  30 CALM      30.11F
EDEN PRAIRIE   FAIR      56  26  31 VRB3      30.11F
SOUTH ST PAUL  FAIR      57  23  26 CALM      30.11F
LAKE ELMO      FAIR      55  28  35 W5        30.12F
$$
MNZ001>005-007-008-013>017-022>024-027-028-252100-
   Northwest Minnesota

CITY           SKY/WX    TMP DP  RH WIND       PRES   REMARKS
BEMIDJI        FAIR      60  26  27 S12G18    30.02F
HALLOCK        FAIR      66  25  20 SW26G37   29.88F
ROSEAU         FAIR      63  41  45 SW21G28   29.92F
WARROAD        FAIR      63  39  42 S17G26    29.92F
THIEF RVR FALL FAIR      60  35  39 SW23G32   29.97F
CROOKSTON      FAIR      63  34  34 SW28      29.98F
FOSSTON        FAIR      57  34  41 SW22G28   30.02F
DETROIT LAKES  FAIR      57  32  38 SW13      30.07F
MOORHEAD       FAIR      63  30  29 S15G23    30.04F
PARK RAPIDS    FAIR      60  29  30 SW13      30.06F
MAHNOMEN       FAIR      59  33  36 SW20G28   30.03F
$$
MNZ006-009>011-018-025>026-252100-
   North Central Minnesota

CITY           SKY/WX    TMP DP  RH WIND       PRES   REMARKS
BAUDETTE       FAIR      62  32  32 SW17G29   29.94F
FLAG ISLAND    FAIR      46  32  57 S16G24    29.88F
INTL FALLS     FAIR      63  26  24 SW14G24   29.97F
WASKISH        FAIR      55  30  38 W12       30.00F
BIG FORK       FAIR      61  30  31 SW12      30.02F
LONGVILLE      FAIR      57  25  28 S8        30.06F
GRAND RAPIDS   FAIR      56  24  29 VRB7      30.07F
CRANE LAKE     FAIR      55  21  26 SW7       30.03F
ORR            FAIR      59  18  20 S5        29.99F
COOK           FAIR      57  25  28 SW10      30.03F
WALKER         FAIR      57  26  30 SW12G17   30.04F
$$
MNZ012-019>021-037-252100-
   Northeast Minnesota

CITY           SKY/WX    TMP DP  RH WIND       PRES   REMARKS
DULUTH         FAIR      56  27  32 S10       30.06F
ELY            FAIR      55  19  24 W9        30.02F
HIBBING        FAIR      55  23  28 VRB3      30.04F
EVELETH        FAIR      57  24  28 SW8       30.05F
DULUTH HARBOR  FAIR      39  34  81 NE6       30.10F
TWO HARBORS    FAIR      55  34  44 S9        30.06F
SILVER BAY     FAIR      48  25  40 S8        30.06F
GRAND MARAIS     N/A     39  31  72 SW8       30.11F
G MARAIS ARPRT FAIR      43  19  39 S9        30.05F
$$
MNZ029>031-032-039>041-046>048-054>057-064-252100-
   West Central Minnesota

CITY           SKY/WX    TMP DP  RH WIND       PRES   REMARKS
FERGUS FALLS   FAIR      59  32  36 S8G17     30.06F
WHEATON        SUNNY     61  28  29 S8        30.10F
MORRIS         CLOUDY    57  30  35 SW8       30.10F
ALEXANDRIA     FAIR      57  29  34 W9        30.11F
ELBOW LAKE     FAIR      56  32  40 SW6       30.11F
WADENA         FAIR      55  30  38 SW6       30.08F
GLENWOOD         N/A     55  27  33 SW7       30.12F
APPLETON       SUNNY     57  25  28 SW6       30.12F
BENSON         SUNNY     57  27  30 W7        30.13F
ORTONVILLE     CLOUDY    59  27  29 SW5       30.10F
WILLMAR        FAIR      52  32  46 W5        30.15F
$$
MNZ033>034-036-042>043-049>051-058-059-252100-
   Central Minnesota

CITY           SKY/WX    TMP DP  RH WIND       PRES   REMARKS
ST CLOUD       FAIR      55  24  30 CALM      30.11F
SAUK CENTRE    FAIR      55  27  34 S7        30.11F
PAYNESVILLE    FAIR      56  28  33 W6        30.12F
AITKIN         FAIR      54  21  28 SW6       30.07F
PINE RIVER     FAIR      54  28  37 W6        30.10F
BRAINERD       FAIR      56  23  27 MISG      30.09F
STAPLES        FAIR      57  25  28 W9        30.09F
LONG PRAIRIE   FAIR      54  30  40 S3        30.11F
LITTLE FALLS   FAIR      54  12  19 S3        30.10F
LITCHFIELD     FAIR      55  28  35 CALM      30.13F
BUFFALO        FAIR      54  26  33 SW7       30.14F
MAPLE LAKE     FAIR      56  28  33 NE5       30.13F
HUTCHINSON     FAIR      55  34  44 S3        30.14F
$$
MNZ037-044-045-052-053-252100-
   East Central Minnesota

CITY           SKY/WX    TMP DP  RH WIND       PRES   REMARKS
PRINCETON      FAIR      57  23  26 CALM      30.11F
MORA           FAIR      54  27  35 SW9       30.12F
CAMBRIDGE        N/A     57  34  41 W5        30.12F
RUSH CITY      FAIR      54  25  32 W5        30.11F
MOOSE LAKE     FAIR      55  25  30 W8        30.06F
HINCKLEY       FAIR      55  25  30 W5        30.10F
CLOQUET        FAIR      55  14  19 SW10      30.07F
MCGREGOR       FAIR      55  27  33 S5        30.08F
$$
MNZ071>073-080-081-089-090-097-098-252100-
   Southwest Minnesota

CITY           SKY/WX    TMP DP  RH WIND       PRES   REMARKS
MONTEVIDEO     SUNNY     61  32  33 NW3       30.13F
GRANITE FALLS  SUNNY     56  33  41 W3        30.16F
CANBY          SUNNY     58  27  30 SW3       30.14F
MARSHALL       SUNNY     55  32  41 VRB6      30.14F
REDWOOD FALLS  SUNNY     53  31  42 SW3       30.13F
OLIVIA         SUNNY     54  34  47 W6        30.13F
PIPESTONE      SUNNY    N/A N/A N/A CALM      30.13F
WINDOM         SUNNY     55  30  38 N3        30.14F
WORTHINGTON    SUNNY     54  28  36 W3        30.15F
JACKSON        SUNNY     54  32  43 NE6       30.15F
TRACY          SUNNY     54  33  45 CALM      30.13F
SLAYTON        SUNNY     53  31  44 S3        30.14F
$$
MNZ065>067-074>077-082>085-091>093-252100-
   South Central Minnesota

CITY           SKY/WX    TMP DP  RH WIND       PRES   REMARKS
MANKATO        FAIR      53  31  42 CALM      30.14F
NEW ULM        SUNNY     54  28  37 SW3       30.13F
ST JAMES       SUNNY     54  36  50 W5        30.15F
GLENCOE        FAIR      54  32  42 CALM      30.13F
OWATONNA       FAIR      55  30  38 NW5       30.13S
WASECA         FAIR      54  32  43 NW9       30.14F
ALBERT LEA     FAIR      55  28  35 W6        30.12F
$$
MNZ078>079-086>088-094>096-252100-
   Southeast Minnesota

CITY           SKY/WX    TMP DP  RH WIND       PRES   REMARKS
ROCHESTER      FAIR      57  30  35 N9        30.12F
RED WING       FAIR      57  21  24 NE8       30.10F
STANTON        FAIR      57  29  34 N3        30.11F
DODGE CENTER   FAIR      54  28  37 CALM      30.12F
WINONA         FAIR      55  30  38 NW6       30.08F
AUSTIN         FAIR      55  34  44 NW8       30.11F
PRESTON        FAIR      55  26  32 N7        30.10F
$$
ABBREVIATIONS USED IN REMARKS
   TC - TEMPERATURES IN CELSIUS
  WCI - WIND CHILL INDEX
   HX - HEAT INDEX
  VSB - VISIBILITY
$$




USA.gov is the U.S. government's official web portal to all federal, state and local government web resources and services.